When you browse on this site, cookies collect data to enhance your experience and personalize the content and advertising you see.
Visit our Privacy Policy to learn more. By continuing to use the site, you agree to this use of cookies and data.
  • In Hungary
  • List of Countries
  • For 7 days
  • Water Temperature
  • Satellite Maps
  • Weather Map
  • News
  • Weather Widgets
  • user-avatar
    Login

    Hourly Weather Nottingham

    Today, 17 January, Thursday

    Time Temperature Precipitation Wind Pressure Humidity
    00:00 +2°C° 0 mm 3 mps 745 mmHg 89%
    01:00 +1°C° 0 mm 3 mps 745 mmHg 89%
    02:00 0°C° 0 mm 4 mps 746 mmHg 88%
    03:00 0°C° 0 mm 4 mps 746 mmHg 88%
    04:00 0°C° 0.1 mm 5 mps 747 mmHg 84%
    05:00 -1°C° 0.1 mm 6 mps 748 mmHg 80%
    06:00 -1°C° 0.1 mm 6 mps 748 mmHg 76%
    07:00 -2°C° 0 mm 6 mps 749 mmHg 73%
    08:00 -2°C° 0 mm 6 mps 750 mmHg 69%
    09:00 -2°C° 0 mm 5 mps 751 mmHg 66%
    10:00 -2°C° 0 mm 6 mps 752 mmHg 63%
    11:00 -1°C° 0 mm 7 mps 753 mmHg 59%
    12:00 0°C° 0 mm 7 mps 753 mmHg 56%
    13:00 +1°C° 0 mm 6 mps 754 mmHg 57%
    14:00 +1°C° 0 mm 5 mps 754 mmHg 59%
    15:00 +1°C° 0 mm 4 mps 755 mmHg 60%
    16:00 0°C° 0 mm 4 mps 755 mmHg 63%
    17:00 0°C° 0 mm 3 mps 756 mmHg 65%
    18:00 -1°C° 0 mm 3 mps 756 mmHg 68%
    19:00 -1°C° 0 mm 3 mps 757 mmHg 68%
    20:00 -1°C° 0 mm 2 mps 757 mmHg 68%
    21:00 -1°C° 0 mm 2 mps 758 mmHg 68%
    22:00 -1°C° 0 mm 2 mps 758 mmHg 68%
    23:00 -1°C° 0 mm 2 mps 758 mmHg 67%

    Tomorrow, 18 January, Friday

    Time Temperature Precipitation Wind Pressure Humidity
    00:00 +1°C° 0 mm 1 mps 758 mmHg 67%
    01:00 +1°C° 0 mm 1 mps 758 mmHg 67%
    02:00 +1°C° 0 mm 1 mps 758 mmHg 67%
    03:00 +1°C° 0 mm 1 mps 758 mmHg 67%
    04:00 +1°C° 0 mm 1 mps 757 mmHg 68%
    05:00 -1°C° 0 mm 2 mps 757 mmHg 69%
    06:00 -1°C° 0 mm 2 mps 757 mmHg 69%
    07:00 -1°C° 0 mm 2 mps 757 mmHg 69%
    08:00 -1°C° 0 mm 3 mps 757 mmHg 69%
    09:00 -1°C° 0 mm 3 mps 757 mmHg 68%
    10:00 -1°C° 0 mm 4 mps 756 mmHg 65%
    11:00 0°C° 0 mm 4 mps 756 mmHg 62%
    12:00 +1°C° 0 mm 5 mps 756 mmHg 59%
    13:00 +1°C° 0 mm 5 mps 755 mmHg 62%
    14:00 +2°C° 0 mm 5 mps 755 mmHg 64%
    15:00 +2°C° 0 mm 5 mps 754 mmHg 67%
    16:00 +1°C° 0 mm 5 mps 754 mmHg 69%
    17:00 +1°C° 0 mm 5 mps 754 mmHg 71%
    18:00 0°C° 0 mm 5 mps 753 mmHg 73%
    19:00 +1°C° 0.1 mm 5 mps 753 mmHg 74%
    20:00 +1°C° 0.1 mm 5 mps 753 mmHg 75%
    21:00 +1°C° 0.1 mm 5 mps 753 mmHg 76%
    22:00 +1°C° 0.3 mm 5 mps 752 mmHg 78%
    23:00 +1°C° 0.3 mm 5 mps 752 mmHg 81%

    Day after tomorrow, 19 January, Saturday

    Time Temperature Precipitation Wind Pressure Humidity
    00:00 +1°C° 0.3 mm 5 mps 752 mmHg 84%
    01:00 +1°C° 0.1 mm 5 mps 752 mmHg 85%
    02:00 +1°C° 0.1 mm 5 mps 751 mmHg 87%
    03:00 +1°C° 0.1 mm 5 mps 751 mmHg 88%
    04:00 +1°C° 0.1 mm 5 mps 751 mmHg 89%
    05:00 0°C° 0.1 mm 5 mps 750 mmHg 91%
    06:00 0°C° 0.1 mm 5 mps 750 mmHg 92%
    07:00 0°C° 0.1 mm 4 mps 750 mmHg 92%
    08:00 +1°C° 0.1 mm 4 mps 750 mmHg 93%
    09:00 +1°C° 0.1 mm 4 mps 750 mmHg 93%
    10:00 +1°C° 0.1 mm 4 mps 750 mmHg 93%
    11:00 +3°C° 0.1 mm 4 mps 750 mmHg 93%
    12:00 +3°C° 0.1 mm 4 mps 750 mmHg 92%
    13:00 +3°C° 0 mm 4 mps 750 mmHg 93%
    14:00 +3°C° 0 mm 4 mps 750 mmHg 93%
    15:00 +3°C° 0 mm 3 mps 750 mmHg 93%
    16:00 +3°C° 0.1 mm 3 mps 750 mmHg 94%
    17:00 +3°C° 0.1 mm 3 mps 750 mmHg 95%
    18:00 +2°C° 0.1 mm 3 mps 751 mmHg 96%
    19:00 +2°C° 0 mm 3 mps 751 mmHg 96%
    20:00 +2°C° 0 mm 3 mps 751 mmHg 96%
    21:00 +2°C° 0 mm 3 mps 752 mmHg 96%
    22:00 +2°C° 0 mm 3 mps 752 mmHg 96%
    23:00 +4°C° 0 mm 2 mps 752 mmHg 96%

    20 January, Sunday

    Time Temperature Precipitation Wind Pressure Humidity
    00:00 +4°C° 0 mm 2 mps 752 mmHg 96%
    01:00 +2°C° 0.1 mm 3 mps 752 mmHg 96%
    02:00 +2°C° 0.1 mm 3 mps 752 mmHg 96%
    03:00 +2°C° 0.1 mm 3 mps 752 mmHg 96%
    04:00 +2°C° 0.3 mm 3 mps 753 mmHg 96%
    05:00 +3°C° 0.3 mm 3 mps 753 mmHg 95%
    06:00 +3°C° 0.3 mm 3 mps 753 mmHg 95%
    07:00 +3°C° 0 mm 3 mps 754 mmHg 95%
    08:00 +3°C° 0 mm 3 mps 754 mmHg 95%
    09:00 +3°C° 0 mm 3 mps 755 mmHg 94%
    10:00 +4°C° 0 mm 4 mps 756 mmHg 90%
    11:00 +3°C° 0 mm 5 mps 756 mmHg 85%
    12:00 +5°C° 0 mm 5 mps 757 mmHg 81%
    13:00 +5°C° 0 mm 5 mps 757 mmHg 81%
    14:00 +5°C° 0 mm 5 mps 758 mmHg 80%
    15:00 +3°C° 0 mm 5 mps 758 mmHg 80%
    16:00 +2°C° 0 mm 5 mps 759 mmHg 79%
    17:00 +2°C° 0 mm 5 mps 759 mmHg 79%
    18:00 +1°C° 0 mm 5 mps 760 mmHg 78%
    19:00 0°C° 0 mm 4 mps 761 mmHg 77%
    20:00 0°C° 0 mm 4 mps 762 mmHg 77%
    21:00 -1°C° 0 mm 4 mps 762 mmHg 76%
    22:00 -1°C° 0 mm 4 mps 762 mmHg 77%
    23:00 -1°C° 0 mm 4 mps 763 mmHg 78%

    21 January, Monday

    Time Temperature Precipitation Wind Pressure Humidity
    00:00 -1°C° 0 mm 4 mps 763 mmHg 79%
    01:00 -1°C° 0 mm 4 mps 763 mmHg 78%
    02:00 -1°C° 0 mm 4 mps 763 mmHg 77%
    03:00 -1°C° 0 mm 3 mps 763 mmHg 76%
    04:00 -1°C° 0 mm 3 mps 763 mmHg 77%
    05:00 -1°C° 0 mm 3 mps 763 mmHg 77%
    06:00 -1°C° 0 mm 2 mps 763 mmHg 78%
    07:00 -1°C° 0 mm 2 mps 763 mmHg 78%
    08:00 -1°C° 0 mm 2 mps 762 mmHg 79%
    09:00 -1°C° 0 mm 2 mps 762 mmHg 80%
    10:00 0°C° 0 mm 3 mps 762 mmHg 78%
    11:00 +2°C° 0 mm 3 mps 761 mmHg 76%
    12:00 +3°C° 0 mm 4 mps 760 mmHg 73%
    13:00 +3°C° 0 mm 4 mps 759 mmHg 74%
    14:00 +2°C° 0 mm 5 mps 758 mmHg 75%
    15:00 +2°C° 0 mm 5 mps 756 mmHg 76%
    16:00 +2°C° 0.2 mm 6 mps 755 mmHg 78%
    17:00 +2°C° 0.2 mm 6 mps 754 mmHg 81%
    18:00 0°C° 0.2 mm 7 mps 753 mmHg 83%
    19:00 +2°C° 0.3 mm 7 mps 751 mmHg 83%
    20:00 +2°C° 0.3 mm 7 mps 749 mmHg 83%
    21:00 +1°C° 0.3 mm 8 mps 747 mmHg 83%
    22:00 +1°C° 1.3 mm 8 mps 745 mmHg 84%
    23:00 +1°C° 1.3 mm 9 mps 744 mmHg 85%

    22 January, Tuesday

    Time Temperature Precipitation Wind Pressure Humidity
    00:00 +1°C° 1.3 mm 9 mps 742 mmHg 86%
    01:00 +1°C° 0.9 mm 9 mps 741 mmHg 86%
    02:00 +1°C° 0.9 mm 8 mps 740 mmHg 86%
    03:00 0°C° 0.9 mm 8 mps 739 mmHg 85%
    04:00 0°C° 0.4 mm 7 mps 739 mmHg 85%
    05:00 0°C° 0.4 mm 7 mps 738 mmHg 85%
    06:00 -1°C° 0.4 mm 6 mps 738 mmHg 85%
    07:00 -1°C° 0.3 mm 6 mps 738 mmHg 85%
    08:00 -1°C° 0.3 mm 6 mps 738 mmHg 85%
    09:00 -1°C° 0.3 mm 6 mps 738 mmHg 86%
    10:00 -1°C° 0.5 mm 6 mps 738 mmHg 86%
    11:00 -1°C° 0.5 mm 6 mps 738 mmHg 86%
    12:00 +1°C° 0.5 mm 6 mps 738 mmHg 86%
    13:00 -1°C° 0.5 mm 6 mps 737 mmHg 86%
    14:00 -1°C° 0.5 mm 6 mps 737 mmHg 87%
    15:00 -1°C° 0.5 mm 6 mps 737 mmHg 87%
    16:00 0°C° 0.2 mm 5 mps 737 mmHg 88%
    17:00 0°C° 0.2 mm 5 mps 737 mmHg 88%
    18:00 0°C° 0.2 mm 4 mps 737 mmHg 88%
    19:00 0°C° 0.1 mm 4 mps 737 mmHg 88%
    20:00 -1°C° 0.1 mm 4 mps 738 mmHg 88%
    21:00 -1°C° 0.1 mm 4 mps 738 mmHg 88%
    22:00 -1°C° 0 mm 4 mps 738 mmHg 88%
    23:00 -1°C° 0 mm 3 mps 739 mmHg 89%
    Show more